SCP
-0 -0 -0 -0 -0 -0 0 0 0 0 0 0 0 0 0 -0 -0 -0 -0 -0 -0 -0 -0 0 0 0 0 0 0 0 0 0 0
0 0 0 -0 -0 -0 -0 0 0 0 0 -0 -0 -0 -0 -0 -0 -0 -0 -0 -0 -0 0 0 0 0 0 0 0 0 0 0 0
0 0 0 0 -0 -0 -0 -0 -0 0 -0 -0 -0 0 -0 -0 0 0 -0 0 0 0 0 0 0 0 0 0 0 0 0 0 0
0 0 0 -0 -0 0 0 0 0 0 0 0 0 0 -0 0 0 0 0 0 0 0 0 0 0 0 0 0 0 0 0 0 0
0 0 -0 -0 -0 -0 -0 0 0 0 0 0 0 0 -0 0 0 0 0 -0 0 0 0 0 0 0 0 0 0 0 0 0 0
0 0 -0 0 -0 -0 -0 0 0 0 0 0 0 0 0 0 0 0 0 0 0 0 0 0 0 0 0 0 0 0 0 0 0
-0 0 -0 0 0 0 0 0 0 0 0 0 0 0 0 0 0 0 0 0 0 0 0 0 0 0 0 0 0 0 0 0 0
-0 -0 -0 -0 0 0 0 0 0 0 0 0 0 0 0 0 0 0 0 0 0 0 0 0 0 0 0 0 0 0 0 0 0
-0 -0 0 0 0 0 0 0 0 0 0 0 0 0 0 0 0 0 0 0 0 0 0 0 0 0 0 0 0 0 0 0 0
0 0 0 0 0 0 0 0 0 0 0 0 0 0 0 0 0 0 0 0 0 0 0 0 0 0 0 0 0 0 0 0 0
0 0 0 0 0 0 0 0 0 0 0 0 0 0 0 0 0 0 0 0 0 0 0 0 0 0 0 0 0 0 0 0 0
0 0 0 0 0 0 0 0 0 0 0 0 0 0 0 0 0 0 0 0 0 0 0 0 0 0 0 0 0 0 0 0 0
0 0 0 0 0 0 0 0 0 0 0 0 0 0 0 0 0 0 0 0 0 0 0 0 0 0 0 0 0 0 0 0 0
0 0 0 0 0 0 0 0 0 0 0 0 0 0 0 0 0 0 0 0 0 0 0 0 0 0 0 0 0 0 0 0 0
0 0 0 0 0 0 0 0 0 0 0 0 0 0 0 0 0 0 0 0 0 0 0 0 0 0 0 0 0 0 0 0 0
0 0 0 0 0 0 0 0 0 0 0 0 0 0 0 0 0 0 0 0 0 0 0 0 0 0 0 0 0 0 0 0 0
0 0 0 0 0 0 0 0 0 0 0 0 0 0 0 0 0 0 0 0 0 0 0 0 0 0 0 0 0 0 0 0 0
0 0 0 0 0 0 0 0 0 0 0 0 0 0 0 0 0 0 0 0 0 0 0 0 0 0 0 0 0 0 0 0 0
0 0 0 0 0 0 0 0 0 0 0 0 0 0 0 0 0 0 0 0 0 0 0 0 0 0 0 0 0 0 0 0 0
0 0 0 0 0 0 0 0 0 0 0 0 0 0 0 0 0 0 0 0 0 0 0 0 0 0 0 0 0 0 0 0 0
Wind_Speed_500mb
33 34 40 42 41 45 43 41 39 35 31 30 29 28 26 24 21 21 21 20 21 21 21 20 20 20 18 17 14 11 8 6 0
32 40 42 42 44 45 42 38 35 30 27 26 25 23 20 19 17 17 16 16 17 17 17 18 18 18 18 17 15 13 11 11 10
34 41 44 41 43 42 39 35 31 26 23 22 20 19 17 16 14 14 12 13 15 15 15 16 17 17 17 16 15 14 15 15 13
38 43 45 42 41 39 35 31 26 23 19 17 15 13 12 12 10 10 9 9 12 12 12 13 14 14 16 15 14 14 14 13 13
44 45 45 43 39 35 31 26 22 19 16 13 11 9 8 7 6 7 6 6 8 9 10 10 11 14 15 15 15 14 14 14 13
46 44 43 40 35 31 27 23 20 16 14 11 8 7 5 4 4 4 3 3 5 6 8 9 11 12 14 14 14 13 13 13 13
35 44 40 37 34 30 26 22 18 15 12 11 11 9 8 6 6 6 4 1 2 4 6 8 10 14 15 12 11 14 14 14 12
43 41 40 37 34 29 25 21 18 17 16 15 12 12 11 8 8 8 7 5 4 5 6 8 10 12 12 11 13 15 15 13 11
42 37 38 36 35 30 28 24 23 21 19 17 15 14 11 9 10 10 9 6 4 5 7 11 14 15 11 12 16 15 13 12 13
42 40 37 36 34 31 29 27 25 24 22 19 16 14 13 12 12 11 11 8 8 10 12 14 19 24 17 16 18 16 15 14 15
39 39 37 35 33 33 33 31 29 25 24 18 19 18 17 15 14 13 13 14 13 15 17 17 20 22 24 30 26 18 18 20 19
33 34 33 32 31 32 34 33 31 28 26 22 18 17 15 16 14 13 14 18 20 22 24 25 25 26 26 25 31 25 21 19 22
35 32 33 32 32 32 31 31 30 27 23 19 17 16 15 15 16 17 18 19 24 27 29 33 36 34 29 27 28 29 24 21 24
39 36 34 34 34 34 33 32 30 25 23 22 18 16 14 16 19 18 22 23 31 30 35 35 35 31 29 29 29 32 30 26 24
40 40 38 36 38 37 38 35 33 27 22 20 17 17 16 18 20 20 23 22 28 27 34 31 26 30 30 27 26 32 35 27 28
43 44 43 42 38 36 37 37 34 33 27 21 20 17 19 21 22 17 14 19 27 23 24 20 19 22 26 29 32 34 32 30 27
41 52 52 48 46 40 42 43 36 32 34 26 20 15 13 11 12 17 15 20 22 22 22 26 25 25 27 33 31 30 27 25 33
44 55 62 62 58 54 46 44 42 43 38 35 20 11 11 11 16 14 21 21 19 25 30 25 26 28 25 25 27 30 30 29 34
43 47 52 50 60 64 59 48 48 45 40 38 31 27 18 14 13 15 20 23 24 26 28 28 31 26 28 29 32 35 36 39 37
28 36 34 39 40 45 49 45 52 48 35 26 22 22 26 28 28 24 19 26 25 29 35 36 31 30 36 38 40 38 39 35 35
Wind_Direction_500mb
159 154 153 145 141 140 137 137 135 129 121 117 116 113 108 98 96 89 85 85 76 72 71 70 69 68 68 67 67 71 65 59 202
156 155 152 147 142 141 141 140 135 130 124 119 112 111 108 102 96 90 83 79 73 67 67 66 65 62 58 56 55 56 55 53 54
158 157 156 152 149 147 146 145 141 136 129 123 117 112 108 96 93 92 90 82 76 72 68 63 59 55 51 46 40 37 35 36 35
164 162 161 161 158 155 153 150 146 141 136 129 126 118 106 103 99 92 91 79 79 72 68 60 53 46 40 33 28 28 28 27 25
169 168 169 170 166 163 161 159 155 152 150 144 138 129 125 119 113 104 106 80 74 67 57 49 40 33 25 22 21 21 19 18 16
173 173 173 175 174 175 175 173 173 172 171 172 170 167 159 176 171 153 136 98 75 59 43 28 19 12 6 9 11 16 17 11 11
170 176 175 177 182 185 189 189 188 191 197 203 202 196 206 209 216 217 219 245 20 27 27 15 2 356 346 350 357 1 359 359 3
175 178 181 185 189 193 198 202 207 211 212 216 218 219 220 219 228 239 242 254 284 330 353 357 348 346 342 344 337 328 326 331 345
180 182 187 190 196 201 205 208 216 220 223 226 226 231 227 225 232 244 249 253 273 306 322 338 339 333 333 330 330 335 327 316 321
188 192 196 201 206 210 215 217 221 222 223 229 224 222 232 233 242 244 255 259 274 288 296 315 317 316 311 312 324 329 326 317 305
196 201 204 209 214 218 220 222 223 222 221 224 226 235 240 239 245 244 250 261 275 286 289 292 288 291 296 306 305 308 322 323 322
204 207 213 218 224 224 224 223 221 221 226 226 229 237 241 254 243 245 257 270 275 279 283 282 286 286 290 287 285 294 301 311 316
215 216 222 229 231 225 222 222 221 222 224 226 228 235 241 242 255 263 268 279 281 288 287 278 276 279 285 283 276 280 287 305 312
227 229 229 232 229 229 226 222 217 222 224 223 228 225 240 261 264 277 276 281 289 287 288 282 276 276 277 272 264 271 286 297 307
233 229 228 231 232 231 230 225 224 219 217 216 218 239 248 259 265 272 276 285 293 292 293 290 280 269 275 261 266 274 279 288 299
233 231 230 233 238 239 234 226 220 216 211 213 242 244 253 259 255 261 272 284 293 288 295 293 273 273 271 258 259 258 262 277 290
255 234 229 232 233 234 233 225 219 213 211 216 220 246 243 266 213 280 292 294 295 286 291 286 280 277 276 269 267 261 274 293 301
261 256 252 239 235 235 228 225 222 216 215 220 217 210 218 241 259 266 297 305 296 290 288 283 283 286 269 259 258 253 271 288 297
257 263 258 263 256 245 238 226 219 221 225 217 220 231 243 255 281 283 297 293 294 293 290 284 286 278 266 260 258 260 273 283 283
263 269 265 259 253 253 238 227 224 225 219 225 245 248 254 264 262 276 269 303 293 289 288 287 279 267 262 263 264 267 270 271 269
Wind_Speed_850mb
33 34 40 42 41 45 43 41 39 35 31 30 29 28 26 24 21 21 21 20 21 21 21 20 20 20 18 17 14 11 8 6 0
32 40 42 42 44 45 42 38 35 30 27 26 25 23 20 19 17 17 16 16 17 17 17 18 18 18 18 17 15 13 11 11 10
34 41 44 41 43 42 39 35 31 26 23 22 20 19 17 16 14 14 12 13 15 15 15 16 17 17 17 16 15 14 15 15 13
38 43 45 42 41 39 35 31 26 23 19 17 15 13 12 12 10 10 9 9 12 12 12 13 14 14 16 15 14 14 14 13 13
44 45 45 43 39 35 31 26 22 19 16 13 11 9 8 7 6 7 6 6 8 9 10 10 11 14 15 15 15 14 14 14 13
46 44 43 40 35 31 27 23 20 16 14 11 8 7 5 4 4 4 3 3 5 6 8 9 11 12 14 14 14 13 13 13 13
35 44 40 37 34 30 26 22 18 15 12 11 11 9 8 6 6 6 4 1 2 4 6 8 10 14 15 12 11 14 14 14 12
43 41 40 37 34 29 25 21 18 17 16 15 12 12 11 8 8 8 7 5 4 5 6 8 10 12 12 11 13 15 15 13 11
42 37 38 36 35 30 28 24 23 21 19 17 15 14 11 9 10 10 9 6 4 5 7 11 14 15 11 12 16 15 13 12 13
42 40 37 36 34 31 29 27 25 24 22 19 16 14 13 12 12 11 11 8 8 10 12 14 19 24 17 16 18 16 15 14 15
39 39 37 35 33 33 33 31 29 25 24 18 19 18 17 15 14 13 13 14 13 15 17 17 20 22 24 30 26 18 18 20 19
33 34 33 32 31 32 34 33 31 28 26 22 18 17 15 16 14 13 14 18 20 22 24 25 25 26 26 25 31 25 21 19 22
35 32 33 32 32 32 31 31 30 27 23 19 17 16 15 15 16 17 18 19 24 27 29 33 36 34 29 27 28 29 24 21 24
39 36 34 34 34 34 33 32 30 25 23 22 18 16 14 16 19 18 22 23 31 30 35 35 35 31 29 29 29 32 30 26 24
40 40 38 36 38 37 38 35 33 27 22 20 17 17 16 18 20 20 23 22 28 27 34 31 26 30 30 27 26 32 35 27 28
43 44 43 42 38 36 37 37 34 33 27 21 20 17 19 21 22 17 14 19 27 23 24 20 19 22 26 29 32 34 32 30 27
41 52 52 48 46 40 42 43 36 32 34 26 20 15 13 11 12 17 15 20 22 22 22 26 25 25 27 33 31 30 27 25 33
44 55 62 62 58 54 46 44 42 43 38 35 20 11 11 11 16 14 21 21 19 25 30 25 26 28 25 25 27 30 30 29 34
43 47 52 50 60 64 59 48 48 45 40 38 31 27 18 14 13 15 20 23 24 26 28 28 31 26 28 29 32 35 36 39 37
28 36 34 39 40 45 49 45 52 48 35 26 22 22 26 28 28 24 19 26 25 29 35 36 31 30 36 38 40 38 39 35 35
Wind_Direction_850mb
159 154 153 145 141 140 137 137 135 129 121 117 116 113 108 98 96 89 85 85 76 72 71 70 69 68 68 67 67 71 65 59 202
156 155 152 147 142 141 141 140 135 130 124 119 112 111 108 102 96 90 83 79 73 67 67 66 65 62 58 56 55 56 55 53 54
158 157 156 152 149 147 146 145 141 136 129 123 117 112 108 96 93 92 90 82 76 72 68 63 59 55 51 46 40 37 35 36 35
164 162 161 161 158 155 153 150 146 141 136 129 126 118 106 103 99 92 91 79 79 72 68 60 53 46 40 33 28 28 28 27 25
169 168 169 170 166 163 161 159 155 152 150 144 138 129 125 119 113 104 106 80 74 67 57 49 40 33 25 22 21 21 19 18 16
173 173 173 175 174 175 175 173 173 172 171 172 170 167 159 176 171 153 136 98 75 59 43 28 19 12 6 9 11 16 17 11 11
170 176 175 177 182 185 189 189 188 191 197 203 202 196 206 209 216 217 219 245 20 27 27 15 2 356 346 350 357 1 359 359 3
175 178 181 185 189 193 198 202 207 211 212 216 218 219 220 219 228 239 242 254 284 330 353 357 348 346 342 344 337 328 326 331 345
180 182 187 190 196 201 205 208 216 220 223 226 226 231 227 225 232 244 249 253 273 306 322 338 339 333 333 330 330 335 327 316 321
188 192 196 201 206 210 215 217 221 222 223 229 224 222 232 233 242 244 255 259 274 288 296 315 317 316 311 312 324 329 326 317 305
196 201 204 209 214 218 220 222 223 222 221 224 226 235 240 239 245 244 250 261 275 286 289 292 288 291 296 306 305 308 322 323 322
204 207 213 218 224 224 224 223 221 221 226 226 229 237 241 254 243 245 257 270 275 279 283 282 286 286 290 287 285 294 301 311 316
215 216 222 229 231 225 222 222 221 222 224 226 228 235 241 242 255 263 268 279 281 288 287 278 276 279 285 283 276 280 287 305 312
227 229 229 232 229 229 226 222 217 222 224 223 228 225 240 261 264 277 276 281 289 287 288 282 276 276 277 272 264 271 286 297 307
233 229 228 231 232 231 230 225 224 219 217 216 218 239 248 259 265 272 276 285 293 292 293 290 280 269 275 261 266 274 279 288 299
233 231 230 233 238 239 234 226 220 216 211 213 242 244 253 259 255 261 272 284 293 288 295 293 273 273 271 258 259 258 262 277 290
255 234 229 232 233 234 233 225 219 213 211 216 220 246 243 266 213 280 292 294 295 286 291 286 280 277 276 269 267 261 274 293 301
261 256 252 239 235 235 228 225 222 216 215 220 217 210 218 241 259 266 297 305 296 290 288 283 283 286 269 259 258 253 271 288 297
257 263 258 263 256 245 238 226 219 221 225 217 220 231 243 255 281 283 297 293 294 293 290 284 286 278 266 260 258 260 273 283 283
263 269 265 259 253 253 238 227 224 225 219 225 245 248 254 264 262 276 269 303 293 289 288 287 279 267 262 263 264 267 270 271 269